Date String (YYYY-MM-DD hh:mm:ss) UTC,Instrument flags,absolute air pressure of the measurement (hPa),sample flow rate (lpm),inlet stack bypass flow (lpm),air temperature of the measurement (°C),ambient temperature measured by the external sensor (°C),aerosol sample conditioner tube jacket temperature (°C),OPC LED temperature (°C),internal box temperature (°C),relative humidity of the measurement (%),span deviation,mass concentration of particles derived from Lorenz-Mie calculation of OPC scattering (μg/m³),mass concentration of particles derived from Lorenz-Mie calculation of OPC scattering (μg/m³),mass concentration of particles derived from Lorenz-Mie calculation of OPC scattering (μg/m³)
DateTimeUTC,F1_M11,P_M11,Q1_M11,Q2_M11,T1_M11,T2_M11,T3_M11,T4_M11,T5_M11,U1_M11,ZSPAN_M11,X0_M11,X2_M11,X1_M11
2024-01-10 01:00:00,SystemResetWarning,0813.9,5.00,000.00,020.0,019.2,000.0,028.4,021.3,10.2,0000.0,0003.51,0000.69,0000.40
2024-01-10 01:01:00,SystemResetWarning,0813.9,5.00,000.00,020.0,019.1,000.0,028.4,021.2,10.4,0000.0,0003.52,0000.69,0000.41
2024-01-10 01:02:00,SystemResetWarning,0813.9,5.00,000.00,020.0,019.1,000.0,028.3,021.2,10.5,0000.0,0003.50,0000.70,0000.41
2024-01-10 01:03:00,SystemResetWarning,0813.9,5.00,000.00,020.0,019.1,000.0,028.3,021.2,10.5,0000.0,0003.44,0000.69,0000.41
2024-01-10 01:04:00,SystemResetWarning,0813.9,5.00,000.00,020.0,019.1,000.0,028.3,021.2,10.4,0000.0,0002.35,0000.69,0000.41
2024-01-10 01:05:00,SystemResetWarning,0813.8,5.00,000.00,020.0,019.1,000.0,028.3,021.2,10.3,0000.0,0002.33,0000.70,0000.42
2024-01-10 01:06:00,SystemResetWarning,0813.6,5.00,000.00,020.0,019.1,000.0,028.3,021.2,10.3,0000.0,0001.48,0000.68,0000.41
2024-01-10 01:07:00,SystemResetWarning,0813.6,5.00,000.00,020.0,019.0,000.0,028.3,021.2,10.4,0000.0,0001.44,0000.69,0000.41
2024-01-10 01:08:00,SystemResetWarning,0813.7,5.00,000.00,020.0,019.0,000.0,028.3,021.2,10.5,0000.0,0001.37,0000.67,0000.40
2024-01-10 01:09:00,SystemResetWarning,0813.8,5.00,000.00,020.0,019.0,000.0,028.3,021.1,10.4,0000.0,0001.31,0000.66,0000.41
2024-01-10 01:10:00,SystemResetWarning,0813.9,5.00,000.00,020.0,018.9,000.0,028.3,021.2,10.5,0000.0,0001.41,0000.67,0000.41
2024-01-10 01:11:00,SystemResetWarning,0813.9,5.00,000.00,020.0,018.9,000.0,028.3,021.2,10.5,0000.0,0001.47,0000.66,0000.41
2024-01-10 01:12:00,SystemResetWarning,0813.9,5.00,000.00,020.0,018.9,000.0,028.3,021.2,10.5,0000.0,0001.55,0000.65,0000.40
2024-01-10 01:13:00,SystemResetWarning,0813.8,5.00,000.00,020.0,018.9,000.0,028.3,021.2,10.5,0000.0,0001.69,0000.68,0000.40
2024-01-10 01:14:00,SystemResetWarning,0813.8,5.00,000.00,020.0,018.9,000.0,028.3,021.2,10.5,0000.0,0001.71,0000.70,0000.39
2024-01-10 01:15:00,SystemResetWarning,0813.6,5.00,000.00,020.0,018.9,000.0,028.3,021.2,10.5,0000.0,0002.66,0000.69,0000.39
2024-01-10 01:16:00,SystemResetWarning,0813.5,4.99,000.00,019.9,018.9,000.0,028.3,021.2,10.5,0000.0,0002.92,0000.68,0000.39
2024-01-10 01:17:00,SystemResetWarning,0813.5,4.99,000.00,019.9,018.9,000.0,028.3,021.2,10.5,0000.0,0002.86,0000.66,0000.38
2024-01-10 01:18:00,SystemResetWarning,0813.5,5.00,000.00,019.9,018.9,000.0,028.3,021.1,10.5,0000.0,0002.77,0000.62,0000.39
2024-01-10 01:19:00,SystemResetWarning,0813.4,5.00,000.00,019.9,018.9,000.0,028.3,021.2,10.5,0000.0,0002.97,0000.66,0000.40
2024-01-10 01:20:00,SystemResetWarning,0813.4,5.01,000.00,019.9,018.9,000.0,028.3,021.2,10.4,0000.0,0003.07,0000.68,0000.39
2024-01-10 01:21:00,SystemResetWarning,0813.4,5.00,000.00,019.9,018.9,000.0,028.3,021.2,10.4,0000.0,0003.12,0000.69,0000.39
2024-01-10 01:22:00,SystemResetWarning,0813.3,5.00,000.00,019.9,018.9,000.0,028.3,021.1,10.3,0000.0,0003.89,0000.70,0000.40
2024-01-10 01:23:00,SystemResetWarning,0813.4,5.00,000.00,019.9,018.9,000.0,028.3,021.1,10.4,0000.0,0004.01,0000.73,0000.40
2024-01-10 01:24:00,SystemResetWarning,0813.4,5.00,000.00,019.9,018.9,000.0,028.3,021.1,10.4,0000.0,0004.49,0000.71,0000.39
2024-01-10 01:25:00,SystemResetWarning,0813.4,4.99,000.00,019.9,018.9,000.0,028.3,021.1,10.5,0000.0,0005.03,0000.69,0000.39
2024-01-10 01:26:00,SystemResetWarning,0813.4,5.00,000.00,019.9,018.9,000.0,028.2,021.1,10.6,0000.0,0004.14,0000.70,0000.39
2024-01-10 01:27:00,SystemResetWarning,0813.4,4.99,000.00,019.9,018.9,000.0,028.2,021.1,10.6,0000.0,0003.74,0000.72,0000.40
2024-01-10 01:28:00,SystemResetWarning,0813.5,4.99,000.00,019.9,018.9,000.0,028.2,021.1,10.6,0000.0,0003.76,0000.73,0000.40
2024-01-10 01:29:00,SystemResetWarning,0813.5,5.00,000.00,019.9,018.9,000.0,028.2,021.1,10.5,0000.0,0003.77,0000.73,0000.40
2024-01-10 01:30:00,SystemResetWarning,0813.4,5.00,000.00,019.9,018.9,000.0,028.2,021.1,10.5,0000.0,0003.58,0000.70,0000.39
2024-01-10 01:31:00,SystemResetWarning,0813.4,5.00,000.00,019.9,018.9,000.0,028.2,021.1,10.5,0000.0,0003.51,0000.69,0000.39
2024-01-10 01:32:00,SystemResetWarning,0813.5,5.01,000.00,019.9,018.9,000.0,028.2,021.1,10.5,0000.0,0003.47,0000.67,0000.39
2024-01-10 01:33:00,SystemResetWarning,0813.5,5.00,000.00,019.9,018.9,000.0,028.2,021.1,10.5,0000.0,0002.73,0000.67,0000.39
2024-01-10 01:34:00,SystemResetWarning,0813.5,5.00,000.00,019.8,018.9,000.0,028.2,021.1,10.5,0000.0,0002.76,0000.64,0000.38
2024-01-10 01:35:00,SystemResetWarning,0813.5,5.00,000.00,019.8,018.9,000.0,028.2,021.0,10.5,0000.0,0002.42,0000.60,0000.38
2024-01-10 01:36:00,SystemResetWarning,0813.4,5.00,000.00,019.8,018.9,000.0,028.2,021.0,10.5,0000.0,0001.74,0000.59,0000.39
2024-01-10 01:37:00,SystemResetWarning,0813.4,5.00,000.00,019.8,018.9,000.0,028.2,021.0,10.5,0000.0,0001.84,0000.59,0000.39
2024-01-10 01:38:00,SystemResetWarning,0813.3,4.99,000.00,019.8,018.9,000.0,028.2,021.0,10.5,0000.0,0002.12,0000.56,0000.38
2024-01-10 01:39:00,SystemResetWarning,0813.3,5.00,000.00,019.8,018.8,000.0,028.2,021.0,10.6,0000.0,0002.36,0000.56,0000.38
2024-01-10 01:40:00,SystemResetWarning,0813.3,5.00,000.00,019.8,018.8,000.0,028.2,021.0,10.5,0000.0,0002.38,0000.57,0000.38
2024-01-10 01:41:00,SystemResetWarning,0813.3,5.01,000.00,019.8,018.8,000.0,028.2,021.0,10.6,0000.0,0002.49,0000.58,0000.38
2024-01-10 01:42:00,SystemResetWarning,0813.3,5.01,000.00,019.8,018.8,000.0,028.2,021.0,10.7,0000.0,0002.50,0000.58,0000.39
2024-01-10 01:43:00,SystemResetWarning,0813.3,5.01,000.00,019.8,018.8,000.0,028.2,021.0,10.7,0000.0,0002.56,0000.59,0000.38
2024-01-10 01:44:00,SystemResetWarning,0813.3,5.01,000.00,019.8,018.8,000.0,028.2,021.0,10.8,0000.0,0002.55,0000.60,0000.38
2024-01-10 01:45:00,SystemResetWarning,0813.1,5.00,000.00,019.8,018.8,000.0,028.2,021.0,10.8,0000.0,0002.22,0000.58,0000.37
2024-01-10 01:46:00,SystemResetWarning,0813.3,5.00,000.00,019.8,018.7,000.0,028.1,021.0,10.7,0000.0,0001.98,0000.58,0000.37
2024-01-10 01:47:00,SystemResetWarning,0813.3,4.99,000.00,019.7,018.7,000.0,028.1,021.0,10.8,0000.0,0001.87,0000.59,0000.37
2024-01-10 01:48:00,SystemResetWarning,0813.3,4.99,000.00,019.7,018.7,000.0,028.1,021.0,10.8,0000.0,0001.74,0000.58,0000.38
2024-01-10 01:49:00,SystemResetWarning,0813.3,5.00,000.00,019.7,018.7,000.0,028.1,021.0,10.8,0000.0,0001.45,0000.58,0000.37
2024-01-10 01:50:00,SystemResetWarning,0813.4,5.00,000.00,019.7,018.7,000.0,028.1,021.0,10.8,0000.0,0001.32,0000.58,0000.37
2024-01-10 01:51:00,SystemResetWarning,0813.4,5.01,000.00,019.7,018.7,000.0,028.1,020.9,10.8,0000.0,0001.27,0000.57,0000.36
2024-01-10 01:52:00,SystemResetWarning,0813.4,5.01,000.00,019.7,018.7,000.0,028.1,021.0,10.9,0000.0,0002.02,0000.53,0000.35
2024-01-10 01:53:00,SystemResetWarning,0813.4,5.00,000.00,019.7,018.7,000.0,028.1,021.0,10.8,0000.0,0002.81,0000.52,0000.34
2024-01-10 01:54:00,SystemResetWarning,0813.5,4.99,000.00,019.7,018.7,000.0,028.1,021.0,10.8,0000.0,0002.98,0000.50,0000.33
2024-01-10 01:55:00,SystemResetWarning,0813.6,4.99,000.00,019.7,018.7,000.0,028.1,021.0,10.7,0000.0,0004.41,0000.47,0000.32
2024-01-10 01:56:00,SystemResetWarning,0813.6,5.00,000.00,019.7,018.7,000.0,028.1,021.0,10.7,0000.0,0004.44,0000.49,0000.32
2024-01-10 01:57:00,SystemResetWarning,0813.7,5.00,000.00,019.7,018.7,000.0,028.1,021.0,10.7,0000.0,0004.42,0000.49,0000.33
2024-01-10 01:58:00,SystemResetWarning,0813.5,5.01,000.00,019.7,018.7,000.0,028.1,020.9,10.8,0000.0,0004.39,0000.47,0000.32
2024-01-10 01:59:00,SystemResetWarning,0813.4,5.01,000.00,019.7,018.7,000.0,028.1,021.0,10.8,0000.0,0004.43,0000.48,0000.31
